GEFSSE_prec_meanprecacc_018.txt.gz
Total_Precipitation_Accumulation
0.00 0.00 0.01 0.01 0.01 0.01 0.01 0.01 0.01 0.01 0.03 0.03 0.01 0.01 0.01 0.01 0.02 0.03 0.03 0.03 0.02 0.03 0.02 0.01 0.01 0.01 0.02 0.02 0.01 0.02 0.05 0.05 0.05 0.04 0.05 0.05 0.02 0.01 0.01 0.04 0.08 0.04 0.02
0.00 0.01 0.01 0.01 0.01 0.01 0.01 0.01 0.00 0.01 0.02 0.03 0.01 0.00 0.00 0.01 0.01 0.03 0.03 0.04 0.04 0.04 0.03 0.02 0.04 0.04 0.03 0.03 0.01 0.04 0.05 0.04 0.03 0.02 0.02 0.04 0.03 0.01 0.01 0.02 0.04 0.03 0.01
0.01 0.02 0.02 0.02 0.01 0.01 0.01 0.01 0.01 0.01 0.01 0.01 0.00 0.00 0.00 0.00 0.01 0.02 0.03 0.05 0.07 0.09 0.07 0.05 0.07 0.10 0.10 0.07 0.06 0.06 0.07 0.03 0.01 0.01 0.01 0.04 0.06 0.03 0.00 0.00 0.01 0.01 0.00
0.01 0.01 0.02 0.03 0.03 0.02 0.02 0.02 0.01 0.01 0.01 0.01 0.00 0.00 0.00 0.00 0.00 0.00 0.02 0.06 0.11 0.17 0.20 0.19 0.19 0.19 0.16 0.15 0.13 0.10 0.14 0.07 0.01 0.01 0.01 0.03 0.07 0.06 0.01 0.00 0.00 0.00 0.00
0.00 0.01 0.02 0.03 0.04 0.04 0.03 0.03 0.02 0.02 0.02 0.02 0.02 0.01 0.01 0.01 0.00 0.00 0.01 0.03 0.11 0.19 0.24 0.27 0.23 0.20 0.20 0.19 0.16 0.15 0.22 0.16 0.04 0.01 0.02 0.04 0.06 0.10 0.04 0.01 0.00 0.00 0.00
0.00 0.01 0.01 0.03 0.04 0.04 0.04 0.04 0.03 0.03 0.04 0.04 0.04 0.04 0.05 0.04 0.03 0.02 0.02 0.02 0.04 0.11 0.18 0.22 0.21 0.21 0.22 0.17 0.14 0.19 0.28 0.24 0.08 0.02 0.05 0.08 0.06 0.15 0.14 0.04 0.01 0.00 0.00
0.00 0.01 0.01 0.03 0.04 0.04 0.04 0.05 0.05 0.05 0.05 0.05 0.05 0.06 0.08 0.08 0.06 0.05 0.05 0.04 0.02 0.03 0.08 0.14 0.17 0.20 0.22 0.17 0.16 0.24 0.32 0.22 0.05 0.05 0.06 0.08 0.09 0.29 0.39 0.21 0.04 0.00 0.00
0.00 0.00 0.01 0.02 0.02 0.03 0.04 0.06 0.07 0.07 0.07 0.07 0.07 0.07 0.07 0.08 0.08 0.09 0.09 0.08 0.05 0.03 0.03 0.05 0.11 0.16 0.20 0.18 0.17 0.20 0.24 0.12 0.03 0.03 0.04 0.05 0.12 0.41 0.49 0.35 0.14 0.03 0.00
0.00 0.00 0.00 0.00 0.01 0.01 0.03 0.05 0.07 0.07 0.06 0.06 0.06 0.06 0.05 0.06 0.08 0.12 0.14 0.11 0.09 0.07 0.05 0.03 0.03 0.05 0.09 0.14 0.16 0.14 0.12 0.06 0.02 0.04 0.03 0.02 0.12 0.43 0.51 0.43 0.27 0.10 0.02
0.00 0.00 0.00 0.00 0.00 0.00 0.01 0.04 0.06 0.06 0.06 0.06 0.06 0.06 0.05 0.06 0.07 0.10 0.11 0.09 0.10 0.11 0.09 0.06 0.04 0.02 0.02 0.04 0.07 0.07 0.05 0.03 0.03 0.04 0.03 0.03 0.07 0.32 0.47 0.44 0.31 0.19 0.08
0.00 0.00 0.00 0.00 0.00 0.00 0.01 0.03 0.05 0.06 0.06 0.06 0.06 0.07 0.06 0.05 0.04 0.04 0.05 0.05 0.08 0.10 0.09 0.07 0.06 0.04 0.02 0.01 0.01 0.01 0.01 0.01 0.02 0.03 0.03 0.02 0.09 0.33 0.46 0.44 0.37 0.26 0.15
0.00 0.00 0.00 0.00 0.00 0.00 0.00 0.02 0.04 0.04 0.04 0.04 0.05 0.06 0.07 0.06 0.05 0.05 0.04 0.05 0.08 0.10 0.08 0.08 0.09 0.06 0.03 0.02 0.02 0.00 0.00 0.00 0.00 0.01 0.01 0.01 0.09 0.30 0.43 0.45 0.43 0.34 0.22
0.00 0.00 0.00 0.00 0.00 0.00 0.00 0.01 0.03 0.04 0.05 0.06 0.08 0.09 0.09 0.11 0.11 0.10 0.10 0.12 0.12 0.12 0.12 0.13 0.15 0.12 0.10 0.09 0.06 0.02 0.00 0.00 0.00 0.00 0.00 0.00 0.03 0.14 0.30 0.41 0.42 0.38 0.29
0.00 0.00 0.00 0.00 0.00 0.00 0.00 0.00 0.01 0.01 0.03 0.06 0.07 0.11 0.14 0.18 0.20 0.22 0.22 0.26 0.26 0.25 0.23 0.23 0.19 0.18 0.16 0.13 0.10 0.05 0.02 0.01 0.00 0.00 0.00 0.00 0.00 0.03 0.14 0.29 0.40 0.40 0.35
0.00 0.00 0.00 0.00 0.00 0.00 0.00 0.00 0.00 0.01 0.03 0.05 0.05 0.08 0.10 0.10 0.11 0.11 0.11 0.12 0.12 0.13 0.14 0.16 0.16 0.15 0.14 0.13 0.11 0.07 0.04 0.02 0.01 0.00 0.00 0.00 0.00 0.01 0.05 0.15 0.27 0.38 0.39
0.00 0.00 0.00 0.00 0.00 0.00 0.00 0.00 0.00 0.00 0.01 0.01 0.02 0.02 0.03 0.03 0.03 0.03 0.03 0.02 0.02 0.02 0.02 0.03 0.04 0.05 0.06 0.07 0.06 0.05 0.04 0.03 0.01 0.01 0.01 0.00 0.00 0.01 0.03 0.09 0.17 0.27 0.38
0.00 0.00 0.00 0.00 0.00 0.00 0.00 0.00 0.00 0.00 0.00 0.00 0.00 0.00 0.00 0.01 0.01 0.01 0.01 0.01 0.00 0.00 0.00 0.00 0.00 0.00 0.01 0.02 0.02 0.03 0.03 0.02 0.02 0.02 0.02 0.02 0.01 0.01 0.02 0.07 0.14 0.23 0.35
0.00 0.00 0.00 0.00 0.00 0.00 0.00 0.00 0.00 0.00 0.00 0.00 0.00 0.00 0.00 0.00 0.00 0.00 0.00 0.00 0.00 0.00 0.01 0.01 0.01 0.00 0.00 0.01 0.01 0.02 0.04 0.05 0.03 0.03 0.05 0.04 0.03 0.02 0.01 0.04 0.13 0.27 0.38
0.00 0.00 0.00 0.00 0.00 0.00 0.00 0.00 0.00 0.00 0.00 0.00 0.00 0.00 0.00 0.00 0.00 0.00 0.00 0.00 0.00 0.01 0.01 0.02 0.02 0.01 0.01 0.01 0.01 0.01 0.02 0.03 0.04 0.06 0.08 0.09 0.07 0.04 0.03 0.03 0.07 0.19 0.32
0.00 0.00 0.00 0.00 0.00 0.00 0.00 0.00 0.00 0.00 0.00 0.00 0.00 0.00 0.00 0.00 0.00 0.00 0.00 0.00 0.00 0.00 0.00 0.01 0.01 0.01 0.02 0.01 0.01 0.01 0.00 0.01 0.02 0.04 0.07 0.11 0.12 0.11 0.07 0.07 0.07 0.07 0.13
0.00 0.00 0.00 0.00 0.00 0.00 0.00 0.00 0.00 0.00 0.00 0.00 0.00 0.00 0.00 0.00 0.00 0.00 0.00 0.00 0.00 0.00 0.01 0.01 0.02 0.02 0.01 0.01 0.01 0.00 0.00 0.00 0.00 0.02 0.06 0.10 0.14 0.18 0.21 0.20 0.19 0.15 0.11
0.00 0.00 0.00 0.00 0.00 0.00 0.00 0.00 0.00 0.00 0.00 0.00 0.00 0.00 0.00 0.00 0.00 0.00 0.00 0.00 0.00 0.00 0.00 0.01 0.01 0.02 0.02 0.02 0.02 0.02 0.00 0.00 0.00 0.01 0.04 0.08 0.14 0.24 0.33 0.34 0.34 0.28 0.21
0.00 0.00 0.00 0.00 0.00 0.00 0.00 0.00 0.00 0.00 0.00 0.00 0.00 0.00 0.00 0.00 0.00 0.00 0.00 0.00 0.00 0.00 0.00 0.00 0.00 0.01 0.01 0.01 0.03 0.05 0.03 0.00 0.00 0.00 0.01 0.04 0.07 0.11 0.16 0.23 0.26 0.26 0.25
0.00 0.00 0.00 0.00 0.00 0.00 0.00 0.00 0.00 0.00 0.00 0.00 0.00 0.00 0.00 0.00 0.00 0.00 0.00 0.00 0.00 0.01 0.01 0.01 0.01 0.01 0.02 0.01 0.02 0.03 0.04 0.03 0.02 0.01 0.00 0.01 0.01 0.03 0.04 0.07 0.11 0.15 0.19
0.00 0.00 0.00 0.00 0.00 0.00 0.00 0.00 0.00 0.00 0.00 0.00 0.00 0.00 0.00 0.00 0.00 0.00 0.00 0.00 0.00 0.01 0.01 0.01 0.02 0.02 0.03 0.03 0.03 0.03 0.04 0.04 0.03 0.03 0.01 0.01 0.01 0.01 0.01 0.02 0.04 0.06 0.08
0.00 0.00 0.00 0.00 0.00 0.00 0.00 0.00 0.00 0.00 0.00 0.00 0.00 0.00 0.00 0.00 0.00 0.00 0.00 0.00 0.01 0.01 0.01 0.02 0.03 0.03 0.04 0.05 0.05 0.04 0.03 0.03 0.03 0.04 0.03 0.02 0.01 0.01 0.01 0.01 0.01 0.02 0.04

GEFSSE_prec_meanprecacc_024.txt.gz
Total_Precipitation_Accumulation
0.02 0.04 0.09 0.11 0.08 0.06 0.04 0.03 0.02 0.02 0.04 0.06 0.04 0.03 0.02 0.02 0.03 0.04 0.05 0.05 0.05 0.05 0.05 0.07 0.09 0.08 0.06 0.05 0.04 0.05 0.07 0.06 0.06 0.05 0.06 0.06 0.03 0.01 0.01 0.04 0.08 0.06 0.02
0.04 0.05 0.07 0.08 0.07 0.06 0.05 0.04 0.03 0.02 0.03 0.04 0.03 0.02 0.01 0.01 0.02 0.03 0.04 0.06 0.07 0.07 0.05 0.06 0.08 0.09 0.08 0.07 0.08 0.09 0.08 0.06 0.04 0.03 0.04 0.06 0.04 0.02 0.01 0.02 0.04 0.04 0.01
0.03 0.04 0.04 0.05 0.05 0.05 0.04 0.03 0.03 0.02 0.02 0.02 0.01 0.01 0.01 0.01 0.01 0.02 0.04 0.06 0.09 0.11 0.09 0.08 0.11 0.14 0.13 0.12 0.13 0.11 0.11 0.07 0.04 0.02 0.02 0.07 0.11 0.05 0.01 0.00 0.01 0.01 0.00
0.01 0.02 0.02 0.04 0.05 0.04 0.04 0.03 0.03 0.02 0.02 0.02 0.01 0.01 0.01 0.01 0.01 0.02 0.03 0.07 0.12 0.18 0.21 0.21 0.21 0.21 0.18 0.17 0.16 0.13 0.18 0.12 0.05 0.02 0.01 0.06 0.18 0.15 0.04 0.01 0.00 0.00 0.00
0.00 0.01 0.02 0.03 0.04 0.04 0.05 0.04 0.03 0.03 0.03 0.03 0.03 0.02 0.03 0.03 0.02 0.02 0.02 0.04 0.12 0.20 0.25 0.27 0.24 0.21 0.21 0.21 0.18 0.17 0.25 0.20 0.08 0.02 0.02 0.06 0.16 0.23 0.10 0.03 0.01 0.00 0.00
0.01 0.01 0.02 0.03 0.04 0.04 0.04 0.04 0.04 0.03 0.04 0.04 0.04 0.05 0.06 0.06 0.05 0.04 0.04 0.03 0.06 0.11 0.19 0.23 0.22 0.23 0.25 0.20 0.16 0.22 0.32 0.28 0.10 0.02 0.05 0.08 0.12 0.26 0.23 0.10 0.03 0.01 0.00
0.00 0.01 0.01 0.03 0.04 0.04 0.04 0.05 0.05 0.05 0.05 0.05 0.05 0.06 0.08 0.09 0.08 0.08 0.08 0.06 0.04 0.05 0.09 0.15 0.19 0.22 0.26 0.23 0.21 0.31 0.40 0.28 0.07 0.06 0.07 0.09 0.13 0.36 0.47 0.27 0.07 0.01 0.00
0.00 0.00 0.01 0.02 0.02 0.03 0.04 0.06 0.07 0.07 0.07 0.07 0.07 0.07 0.07 0.08 0.10 0.11 0.12 0.10 0.07 0.05 0.05 0.08 0.13 0.18 0.23 0.24 0.25 0.31 0.35 0.19 0.05 0.06 0.07 0.08 0.17 0.45 0.55 0.42 0.20 0.05 0.01
0.00 0.00 0.00 0.00 0.01 0.01 0.03 0.05 0.07 0.07 0.06 0.06 0.06 0.06 0.05 0.06 0.09 0.14 0.15 0.12 0.10 0.09 0.08 0.06 0.06 0.10 0.13 0.17 0.22 0.23 0.22 0.12 0.05 0.11 0.10 0.11 0.18 0.47 0.55 0.48 0.33 0.15 0.04
0.00 0.00 0.00 0.00 0.00 0.00 0.01 0.04 0.06 0.06 0.06 0.06 0.06 0.06 0.05 0.06 0.08 0.11 0.12 0.10 0.10 0.12 0.12 0.10 0.08 0.07 0.07 0.08 0.11 0.11 0.09 0.07 0.04 0.12 0.20 0.17 0.15 0.37 0.50 0.47 0.36 0.25 0.13
0.00 0.00 0.00 0.00 0.00 0.00 0.01 0.03 0.05 0.06 0.06 0.06 0.06 0.07 0.06 0.05 0.04 0.05 0.05 0.06 0.09 0.11 0.10 0.10 0.11 0.09 0.07 0.04 0.03 0.04 0.03 0.02 0.06 0.16 0.22 0.21 0.24 0.42 0.52 0.47 0.41 0.31 0.21
0.00 0.00 0.00 0.00 0.00 0.00 0.00 0.02 0.04 0.04 0.04 0.04 0.05 0.06 0.07 0.06 0.05 0.05 0.04 0.05 0.09 0.10 0.09 0.10 0.12 0.10 0.08 0.06 0.08 0.08 0.02 0.00 0.02 0.06 0.10 0.13 0.26 0.48 0.57 0.52 0.47 0.39 0.28
0.00 0.00 0.00 0.00 0.00 0.00 0.00 0.01 0.03 0.04 0.05 0.06 0.08 0.09 0.09 0.11 0.11 0.10 0.10 0.12 0.12 0.12 0.13 0.14 0.17 0.17 0.19 0.21 0.23 0.19 0.12 0.07 0.03 0.01 0.02 0.05 0.12 0.28 0.46 0.52 0.49 0.45 0.38
0.00 0.00 0.00 0.00 0.00 0.00 0.00 0.00 0.01 0.01 0.03 0.06 0.07 0.11 0.14 0.18 0.20 0.22 0.22 0.26 0.26 0.25 0.24 0.23 0.20 0.20 0.21 0.22 0.24 0.24 0.23 0.21 0.11 0.06 0.03 0.03 0.03 0.06 0.18 0.34 0.46 0.48 0.46
0.00 0.00 0.00 0.00 0.00 0.00 0.00 0.00 0.00 0.01 0.03 0.05 0.05 0.08 0.10 0.10 0.11 0.11 0.11 0.12 0.12 0.13 0.14 0.16 0.17 0.16 0.16 0.16 0.17 0.18 0.20 0.22 0.19 0.14 0.10 0.08 0.03 0.02 0.06 0.15 0.29 0.43 0.48
0.00 0.00 0.00 0.00 0.00 0.00 0.00 0.00 0.00 0.00 0.01 0.01 0.02 0.02 0.03 0.03 0.03 0.03 0.03 0.02 0.02 0.02 0.02 0.03 0.04 0.05 0.06 0.08 0.09 0.11 0.13 0.16 0.17 0.16 0.15 0.14 0.07 0.03 0.04 0.09 0.17 0.28 0.42
0.00 0.00 0.00 0.00 0.00 0.00 0.00 0.00 0.00 0.00 0.00 0.00 0.00 0.00 0.00 0.01 0.01 0.01 0.01 0.01 0.00 0.00 0.00 0.00 0.00 0.01 0.01 0.02 0.03 0.05 0.07 0.08 0.11 0.14 0.15 0.15 0.13 0.07 0.03 0.07 0.14 0.23 0.36
0.00 0.00 0.00 0.00 0.00 0.00 0.00 0.00 0.00 0.00 0.00 0.00 0.00 0.00 0.00 0.00 0.00 0.00 0.00 0.00 0.00 0.00 0.01 0.01 0.01 0.00 0.01 0.01 0.02 0.03 0.05 0.06 0.06 0.08 0.12 0.12 0.12 0.09 0.04 0.04 0.13 0.27 0.38
0.00 0.00 0.00 0.00 0.00 0.00 0.00 0.00 0.00 0.00 0.00 0.00 0.00 0.00 0.00 0.00 0.00 0.00 0.00 0.00 0.00 0.01 0.01 0.02 0.02 0.01 0.01 0.01 0.02 0.02 0.02 0.04 0.05 0.07 0.10 0.13 0.13 0.10 0.07 0.04 0.07 0.19 0.33
0.00 0.00 0.00 0.00 0.00 0.00 0.00 0.00 0.00 0.00 0.00 0.00 0.00 0.00 0.00 0.00 0.00 0.00 0.00 0.00 0.00 0.00 0.00 0.01 0.01 0.01 0.02 0.01 0.02 0.01 0.00 0.01 0.02 0.05 0.07 0.11 0.14 0.13 0.10 0.08 0.07 0.07 0.13
0.00 0.00 0.00 0.00 0.00 0.00 0.00 0.00 0.00 0.00 0.00 0.00 0.00 0.00 0.00 0.00 0.00 0.00 0.00 0.00 0.00 0.00 0.01 0.01 0.02 0.02 0.01 0.01 0.01 0.00 0.00 0.00 0.01 0.02 0.06 0.11 0.15 0.19 0.22 0.21 0.20 0.15 0.11
0.00 0.00 0.00 0.00 0.00 0.00 0.00 0.00 0.00 0.00 0.00 0.00 0.00 0.00 0.00 0.00 0.00 0.00 0.00 0.00 0.00 0.00 0.00 0.01 0.01 0.03 0.02 0.02 0.02 0.02 0.00 0.00 0.00 0.01 0.04 0.08 0.15 0.24 0.34 0.35 0.34 0.28 0.21
0.00 0.00 0.00 0.00 0.00 0.00 0.00 0.00 0.00 0.00 0.00 0.00 0.00 0.00 0.00 0.00 0.00 0.00 0.00 0.00 0.00 0.01 0.01 0.01 0.01 0.01 0.02 0.01 0.03 0.06 0.04 0.01 0.00 0.00 0.01 0.04 0.07 0.11 0.17 0.24 0.28 0.27 0.25
0.00 0.00 0.00 0.00 0.00 0.00 0.00 0.00 0.00 0.00 0.00 0.00 0.00 0.00 0.00 0.00 0.00 0.00 0.00 0.00 0.00 0.01 0.01 0.01 0.02 0.02 0.03 0.03 0.03 0.04 0.05 0.04 0.03 0.01 0.01 0.02 0.02 0.03 0.04 0.07 0.12 0.16 0.20
0.00 0.00 0.00 0.00 0.00 0.00 0.00 0.00 0.00 0.00 0.00 0.00 0.00 0.00 0.00 0.00 0.00 0.00 0.00 0.00 0.00 0.01 0.01 0.02 0.03 0.03 0.05 0.05 0.05 0.05 0.05 0.04 0.04 0.04 0.02 0.02 0.03 0.03 0.03 0.03 0.05 0.07 0.09
0.00 0.00 0.00 0.00 0.00 0.00 0.00 0.00 0.00 0.00 0.00 0.00 0.00 0.00 0.00 0.00 0.00 0.00 0.00 0.00 0.01 0.01 0.02 0.03 0.04 0.05 0.06 0.07 0.07 0.07 0.06 0.05 0.05 0.06 0.05 0.02 0.02 0.02 0.04 0.04 0.03 0.04 0.05

GEFSSE_prec_meanprecacc_030.txt.gz
Total_Precipitation_Accumulation
0.02 0.04 0.09 0.13 0.10 0.08 0.06 0.05 0.04 0.03 0.05 0.07 0.06 0.06 0.06 0.07 0.07 0.07 0.07 0.07 0.06 0.06 0.06 0.07 0.09 0.09 0.08 0.08 0.06 0.07 0.08 0.07 0.06 0.05 0.07 0.07 0.04 0.02 0.01 0.04 0.09 0.08 0.04
0.04 0.05 0.07 0.08 0.07 0.06 0.05 0.04 0.03 0.02 0.04 0.05 0.04 0.03 0.04 0.05 0.06 0.08 0.09 0.10 0.10 0.09 0.07 0.06 0.08 0.09 0.09 0.09 0.10 0.10 0.09 0.07 0.04 0.03 0.04 0.06 0.05 0.03 0.01 0.03 0.05 0.07 0.02
0.03 0.04 0.04 0.05 0.05 0.05 0.04 0.03 0.03 0.02 0.02 0.02 0.02 0.02 0.02 0.03 0.05 0.07 0.09 0.11 0.14 0.16 0.13 0.11 0.13 0.15 0.13 0.12 0.14 0.12 0.12 0.07 0.05 0.03 0.02 0.07 0.11 0.08 0.03 0.02 0.02 0.04 0.02
0.01 0.02 0.02 0.04 0.05 0.04 0.04 0.03 0.03 0.02 0.02 0.02 0.01 0.01 0.01 0.02 0.03 0.05 0.07 0.11 0.16 0.22 0.25 0.24 0.24 0.23 0.19 0.17 0.17 0.14 0.19 0.12 0.06 0.03 0.01 0.06 0.18 0.19 0.10 0.05 0.01 0.02 0.02
0.00 0.01 0.02 0.03 0.04 0.04 0.05 0.04 0.03 0.03 0.03 0.03 0.03 0.02 0.03 0.03 0.03 0.03 0.04 0.07 0.14 0.22 0.28 0.30 0.28 0.25 0.24 0.22 0.19 0.18 0.26 0.21 0.09 0.03 0.02 0.06 0.16 0.25 0.16 0.09 0.04 0.03 0.02
0.01 0.01 0.02 0.03 0.04 0.04 0.04 0.04 0.04 0.03 0.04 0.04 0.04 0.05 0.06 0.06 0.05 0.05 0.04 0.04 0.07 0.13 0.21 0.25 0.25 0.27 0.28 0.23 0.19 0.24 0.34 0.31 0.11 0.02 0.05 0.09 0.13 0.27 0.27 0.17 0.07 0.04 0.03
0.00 0.01 0.01 0.03 0.04 0.04 0.04 0.05 0.05 0.05 0.05 0.05 0.05 0.06 0.08 0.09 0.08 0.08 0.08 0.06 0.04 0.05 0.10 0.16 0.21 0.25 0.29 0.26 0.25 0.34 0.44 0.33 0.10 0.06 0.07 0.10 0.13 0.38 0.51 0.35 0.13 0.04 0.03
0.00 0.00 0.01 0.02 0.02 0.03 0.04 0.06 0.07 0.07 0.07 0.07 0.07 0.07 0.07 0.08 0.10 0.11 0.12 0.10 0.07 0.05 0.06 0.08 0.14 0.20 0.25 0.27 0.29 0.35 0.40 0.23 0.07 0.06 0.08 0.08 0.17 0.48 0.60 0.51 0.28 0.10 0.03
0.00 0.00 0.00 0.00 0.01 0.01 0.03 0.05 0.07 0.07 0.06 0.06 0.06 0.06 0.05 0.06 0.09 0.14 0.15 0.12 0.10 0.09 0.08 0.06 0.07 0.10 0.14 0.19 0.25 0.28 0.26 0.16 0.07 0.12 0.10 0.12 0.20 0.52 0.63 0.60 0.45 0.24 0.09
0.00 0.00 0.00 0.00 0.00 0.00 0.01 0.04 0.06 0.06 0.06 0.06 0.06 0.06 0.05 0.06 0.08 0.11 0.12 0.10 0.10 0.12 0.12 0.10 0.08 0.07 0.07 0.09 0.13 0.15 0.12 0.08 0.05 0.12 0.21 0.19 0.18 0.44 0.61 0.60 0.49 0.36 0.21
0.00 0.00 0.00 0.00 0.00 0.00 0.01 0.03 0.05 0.06 0.06 0.06 0.06 0.07 0.06 0.05 0.04 0.05 0.05 0.06 0.09 0.11 0.10 0.10 0.11 0.09 0.07 0.04 0.04 0.05 0.04 0.02 0.06 0.16 0.22 0.22 0.29 0.56 0.70 0.64 0.58 0.45 0.32
0.00 0.00 0.00 0.00 0.00 0.00 0.00 0.02 0.04 0.04 0.04 0.04 0.05 0.06 0.07 0.06 0.05 0.05 0.04 0.05 0.09 0.10 0.09 0.10 0.12 0.10 0.08 0.06 0.08 0.08 0.03 0.01 0.02 0.06 0.11 0.14 0.32 0.66 0.83 0.77 0.74 0.62 0.44
0.00 0.00 0.00 0.00 0.00 0.00 0.00 0.01 0.03 0.04 0.05 0.06 0.08 0.09 0.09 0.11 0.11 0.10 0.10 0.12 0.12 0.12 0.13 0.14 0.17 0.17 0.19 0.21 0.23 0.20 0.13 0.09 0.05 0.03 0.03 0.06 0.18 0.45 0.72 0.82 0.83 0.78 0.65
0.00 0.00 0.00 0.00 0.00 0.00 0.00 0.00 0.01 0.01 0.03 0.06 0.07 0.11 0.14 0.18 0.20 0.22 0.22 0.26 0.26 0.25 0.24 0.23 0.20 0.20 0.21 0.22 0.24 0.24 0.23 0.22 0.14 0.09 0.05 0.05 0.07 0.13 0.33 0.55 0.74 0.80 0.79
0.00 0.00 0.00 0.00 0.00 0.00 0.00 0.00 0.00 0.01 0.03 0.05 0.05 0.08 0.10 0.10 0.11 0.11 0.11 0.12 0.12 0.13 0.14 0.16 0.17 0.16 0.16 0.16 0.17 0.18 0.21 0.23 0.21 0.17 0.14 0.12 0.08 0.08 0.14 0.27 0.47 0.64 0.75
0.00 0.00 0.00 0.00 0.00 0.00 0.00 0.00 0.00 0.00 0.01 0.01 0.02 0.02 0.03 0.03 0.03 0.03 0.03 0.02 0.02 0.02 0.02 0.03 0.04 0.05 0.06 0.08 0.09 0.11 0.13 0.16 0.18 0.19 0.19 0.21 0.16 0.12 0.13 0.19 0.30 0.45 0.63
0.00 0.00 0.00 0.00 0.00 0.00 0.00 0.00 0.00 0.00 0.00 0.00 0.00 0.00 0.00 0.01 0.01 0.01 0.01 0.01 0.00 0.00 0.00 0.00 0.00 0.01 0.01 0.02 0.03 0.05 0.07 0.08 0.12 0.15 0.18 0.22 0.23 0.19 0.17 0.20 0.25 0.36 0.52
0.00 0.00 0.00 0.00 0.00 0.00 0.00 0.00 0.00 0.00 0.00 0.00 0.00 0.00 0.00 0.00 0.00 0.00 0.00 0.00 0.00 0.00 0.01 0.01 0.01 0.00 0.01 0.01 0.02 0.03 0.05 0.06 0.06 0.09 0.14 0.16 0.19 0.21 0.19 0.20 0.27 0.38 0.48
0.00 0.00 0.00 0.00 0.00 0.00 0.00 0.00 0.00 0.00 0.00 0.00 0.00 0.00 0.00 0.00 0.00 0.00 0.00 0.00 0.00 0.01 0.01 0.02 0.02 0.01 0.01 0.01 0.02 0.02 0.02 0.04 0.05 0.08 0.11 0.14 0.17 0.18 0.20 0.20 0.23 0.31 0.42
0.00 0.00 0.00 0.00 0.00 0.00 0.00 0.00 0.00 0.00 0.00 0.00 0.00 0.00 0.00 0.00 0.00 0.00 0.00 0.00 0.00 0.00 0.00 0.01 0.01 0.01 0.02 0.01 0.02 0.01 0.00 0.01 0.02 0.05 0.07 0.12 0.16 0.17 0.18 0.23 0.25 0.21 0.23
0.00 0.00 0.00 0.00 0.00 0.00 0.00 0.00 0.00 0.00 0.00 0.00 0.00 0.00 0.00 0.00 0.00 0.00 0.00 0.00 0.00 0.01 0.01 0.01 0.02 0.02 0.02 0.01 0.01 0.00 0.00 0.00 0.01 0.02 0.06 0.11 0.15 0.20 0.26 0.31 0.36 0.32 0.23
0.00 0.00 0.00 0.00 0.00 0.00 0.00 0.00 0.00 0.00 0.00 0.00 0.00 0.00 0.00 0.00 0.00 0.00 0.00 0.00 0.00 0.00 0.00 0.01 0.02 0.04 0.03 0.02 0.03 0.04 0.01 0.00 0.00 0.01 0.04 0.08 0.15 0.25 0.36 0.41 0.44 0.44 0.37
0.00 0.00 0.00 0.00 0.00 0.00 0.00 0.00 0.00 0.00 0.00 0.00 0.00 0.00 0.00 0.00 0.00 0.00 0.00 0.00 0.00 0.01 0.01 0.01 0.01 0.03 0.04 0.03 0.04 0.10 0.09 0.03 0.01 0.00 0.01 0.04 0.07 0.11 0.18 0.27 0.33 0.36 0.40
0.00 0.00 0.00 0.00 0.00 0.00 0.00 0.00 0.00 0.00 0.00 0.00 0.00 0.00 0.00 0.00 0.00 0.00 0.00 0.00 0.00 0.01 0.01 0.02 0.02 0.04 0.07 0.07 0.05 0.06 0.08 0.07 0.06 0.03 0.01 0.02 0.02 0.03 0.05 0.09 0.15 0.21 0.30
0.00 0.00 0.00 0.00 0.00 0.00 0.00 0.00 0.00 0.00 0.00 0.00 0.00 0.00 0.00 0.00 0.00 0.00 0.00 0.00 0.00 0.01 0.01 0.02 0.03 0.05 0.08 0.10 0.10 0.08 0.08 0.06 0.06 0.07 0.03 0.02 0.03 0.03 0.03 0.04 0.06 0.09 0.13
0.00 0.00 0.00 0.00 0.00 0.00 0.00 0.00 0.00 0.00 0.00 0.00 0.00 0.00 0.00 0.00 0.00 0.00 0.00 0.00 0.01 0.01 0.02 0.03 0.05 0.06 0.08 0.10 0.11 0.11 0.12 0.11 0.08 0.10 0.08 0.03 0.02 0.03 0.04 0.04 0.05 0.05 0.07

GEFSSE_prec_meanprecacc_036.txt.gz
Total_Precipitation_Accumulation
0.02 0.04 0.09 0.13 0.11 0.09 0.06 0.05 0.04 0.03 0.05 0.07 0.06 0.06 0.07 0.08 0.08 0.09 0.09 0.09 0.09 0.09 0.09 0.11 0.12 0.11 0.10 0.10 0.09 0.11 0.13 0.12 0.10 0.08 0.08 0.08 0.05 0.03 0.02 0.04 0.09 0.08 0.04
0.04 0.05 0.07 0.08 0.07 0.06 0.05 0.04 0.03 0.03 0.04 0.05 0.04 0.03 0.04 0.05 0.07 0.09 0.10 0.12 0.12 0.11 0.09 0.10 0.12 0.12 0.11 0.11 0.12 0.12 0.11 0.11 0.10 0.09 0.07 0.07 0.06 0.05 0.04 0.04 0.05 0.08 0.03
0.03 0.04 0.04 0.05 0.05 0.05 0.04 0.03 0.03 0.02 0.02 0.02 0.02 0.02 0.02 0.03 0.05 0.07 0.09 0.12 0.15 0.17 0.15 0.13 0.15 0.17 0.15 0.14 0.16 0.14 0.14 0.10 0.08 0.09 0.07 0.09 0.12 0.09 0.07 0.05 0.03 0.07 0.06
0.01 0.02 0.02 0.04 0.05 0.04 0.04 0.03 0.03 0.02 0.02 0.02 0.01 0.01 0.02 0.02 0.04 0.05 0.07 0.11 0.17 0.22 0.25 0.25 0.25 0.24 0.20 0.18 0.18 0.15 0.20 0.14 0.08 0.07 0.04 0.08 0.19 0.20 0.14 0.10 0.04 0.06 0.08
0.00 0.01 0.02 0.03 0.04 0.04 0.05 0.04 0.03 0.03 0.03 0.03 0.03 0.03 0.03 0.03 0.03 0.04 0.04 0.07 0.14 0.22 0.28 0.31 0.28 0.26 0.24 0.23 0.20 0.19 0.27 0.22 0.11 0.04 0.03 0.07 0.16 0.26 0.19 0.15 0.09 0.07 0.08
0.01 0.01 0.02 0.03 0.04 0.04 0.04 0.04 0.04 0.03 0.04 0.04 0.04 0.05 0.06 0.06 0.05 0.05 0.04 0.04 0.07 0.13 0.21 0.25 0.25 0.27 0.29 0.24 0.19 0.25 0.36 0.32 0.13 0.03 0.05 0.09 0.13 0.28 0.29 0.23 0.16 0.11 0.08
0.00 0.01 0.01 0.03 0.04 0.04 0.04 0.05 0.05 0.05 0.05 0.05 0.05 0.06 0.08 0.09 0.08 0.08 0.08 0.06 0.05 0.05 0.11 0.17 0.21 0.26 0.29 0.26 0.25 0.35 0.45 0.34 0.10 0.06 0.07 0.10 0.13 0.38 0.52 0.40 0.23 0.14 0.09
0.00 0.00 0.01 0.02 0.02 0.03 0.04 0.06 0.07 0.07 0.07 0.07 0.07 0.07 0.07 0.08 0.10 0.11 0.12 0.10 0.07 0.06 0.06 0.09 0.14 0.21 0.26 0.27 0.29 0.35 0.40 0.23 0.07 0.06 0.08 0.08 0.17 0.48 0.63 0.57 0.40 0.22 0.14
0.00 0.00 0.00 0.00 0.01 0.01 0.03 0.05 0.07 0.07 0.06 0.06 0.06 0.06 0.05 0.06 0.09 0.14 0.15 0.12 0.10 0.10 0.09 0.06 0.07 0.11 0.15 0.19 0.25 0.28 0.26 0.16 0.07 0.12 0.10 0.12 0.20 0.54 0.68 0.68 0.58 0.38 0.23
0.00 0.00 0.00 0.00 0.00 0.00 0.01 0.04 0.06 0.06 0.06 0.06 0.06 0.06 0.05 0.06 0.08 0.11 0.12 0.10 0.10 0.12 0.12 0.10 0.08 0.07 0.07 0.09 0.13 0.15 0.12 0.08 0.05 0.12 0.21 0.19 0.18 0.48 0.70 0.70 0.62 0.52 0.38
0.00 0.00 0.00 0.00 0.00 0.00 0.01 0.03 0.05 0.06 0.06 0.06 0.06 0.07 0.06 0.05 0.04 0.05 0.05 0.06 0.09 0.11 0.10 0.10 0.11 0.09 0.07 0.04 0.04 0.05 0.04 0.02 0.06 0.16 0.22 0.22 0.30 0.60 0.79 0.76 0.71 0.62 0.52
0.00 0.00 0.00 0.00 0.00 0.00 0.00 0.02 0.04 0.04 0.04 0.04 0.05 0.06 0.07 0.06 0.05 0.05 0.04 0.05 0.09 0.10 0.09 0.10 0.12 0.10 0.08 0.06 0.08 0.08 0.03 0.01 0.02 0.06 0.11 0.14 0.33 0.69 0.90 0.88 0.87 0.78 0.64
0.00 0.00 0.00 0.00 0.00 0.00 0.00 0.01 0.03 0.04 0.05 0.06 0.08 0.09 0.09 0.11 0.11 0.10 0.10 0.12 0.12 0.12 0.13 0.14 0.17 0.17 0.19 0.21 0.23 0.20 0.13 0.09 0.05 0.03 0.03 0.06 0.18 0.46 0.76 0.90 0.94 0.93 0.85
0.00 0.00 0.00 0.00 0.00 0.00 0.00 0.00 0.01 0.01 0.03 0.06 0.07 0.11 0.14 0.18 0.20 0.22 0.22 0.26 0.26 0.25 0.24 0.23 0.20 0.20 0.21 0.22 0.24 0.24 0.23 0.22 0.14 0.09 0.05 0.05 0.07 0.14 0.34 0.59 0.81 0.92 0.97
0.00 0.00 0.00 0.00 0.00 0.00 0.00 0.00 0.00 0.01 0.03 0.05 0.05 0.08 0.10 0.10 0.11 0.11 0.11 0.12 0.12 0.13 0.14 0.16 0.17 0.16 0.16 0.16 0.17 0.18 0.21 0.23 0.21 0.17 0.14 0.12 0.08 0.08 0.14 0.28 0.51 0.74 0.93
0.00 0.00 0.00 0.00 0.00 0.00 0.00 0.00 0.00 0.00 0.01 0.01 0.02 0.02 0.03 0.03 0.03 0.03 0.03 0.02 0.02 0.02 0.02 0.03 0.04 0.05 0.06 0.08 0.09 0.11 0.13 0.16 0.18 0.19 0.19 0.21 0.16 0.13 0.14 0.19 0.31 0.52 0.80
0.00 0.00 0.00 0.00 0.00 0.00 0.00 0.00 0.00 0.00 0.00 0.00 0.00 0.00 0.00 0.01 0.01 0.01 0.01 0.01 0.00 0.00 0.00 0.00 0.00 0.01 0.01 0.02 0.03 0.05 0.07 0.08 0.12 0.15 0.18 0.22 0.23 0.20 0.17 0.20 0.25 0.39 0.65
0.00 0.00 0.00 0.00 0.00 0.00 0.00 0.00 0.00 0.00 0.00 0.00 0.00 0.00 0.00 0.00 0.00 0.00 0.00 0.00 0.00 0.00 0.01 0.01 0.01 0.00 0.01 0.01 0.02 0.03 0.05 0.06 0.06 0.09 0.14 0.16 0.19 0.21 0.20 0.20 0.27 0.39 0.54
0.00 0.00 0.00 0.00 0.00 0.00 0.00 0.00 0.00 0.00 0.00 0.00 0.00 0.00 0.00 0.00 0.00 0.00 0.00 0.00 0.00 0.01 0.01 0.02 0.02 0.01 0.01 0.01 0.02 0.02 0.02 0.04 0.05 0.08 0.11 0.14 0.17 0.18 0.20 0.21 0.24 0.32 0.44
0.00 0.00 0.00 0.00 0.00 0.00 0.00 0.00 0.00 0.00 0.00 0.00 0.00 0.00 0.00 0.00 0.00 0.00 0.00 0.00 0.00 0.00 0.00 0.01 0.01 0.01 0.02 0.01 0.02 0.01 0.00 0.01 0.02 0.05 0.07 0.12 0.16 0.17 0.18 0.23 0.26 0.23 0.25
0.00 0.00 0.00 0.00 0.00 0.00 0.00 0.00 0.00 0.00 0.00 0.00 0.00 0.00 0.00 0.00 0.00 0.00 0.00 0.00 0.00 0.01 0.01 0.01 0.02 0.02 0.02 0.01 0.02 0.01 0.00 0.00 0.01 0.02 0.06 0.11 0.15 0.21 0.27 0.31 0.37 0.35 0.27
0.00 0.00 0.00 0.00 0.00 0.00 0.00 0.00 0.00 0.00 0.00 0.00 0.00 0.00 0.00 0.00 0.00 0.00 0.00 0.00 0.00 0.00 0.00 0.01 0.02 0.04 0.03 0.02 0.05 0.06 0.02 0.00 0.00 0.01 0.04 0.08 0.15 0.25 0.36 0.41 0.45 0.46 0.41
0.00 0.00 0.00 0.00 0.00 0.00 0.00 0.00 0.00 0.00 0.00 0.00 0.00 0.00 0.00 0.00 0.00 0.00 0.00 0.00 0.00 0.01 0.01 0.01 0.01 0.03 0.05 0.03 0.05 0.16 0.17 0.08 0.02 0.00 0.01 0.04 0.07 0.11 0.18 0.27 0.34 0.38 0.44
0.00 0.00 0.00 0.00 0.00 0.00 0.00 0.00 0.00 0.00 0.00 0.00 0.00 0.00 0.00 0.00 0.00 0.00 0.00 0.00 0.00 0.01 0.01 0.02 0.02 0.04 0.07 0.08 0.06 0.08 0.14 0.15 0.13 0.06 0.01 0.02 0.02 0.03 0.05 0.09 0.15 0.22 0.32
0.00 0.00 0.00 0.00 0.00 0.00 0.00 0.00 0.00 0.00 0.00 0.00 0.00 0.00 0.00 0.00 0.00 0.00 0.00 0.00 0.00 0.01 0.01 0.02 0.03 0.05 0.08 0.12 0.12 0.10 0.10 0.09 0.11 0.13 0.05 0.02 0.03 0.03 0.03 0.04 0.07 0.10 0.15
0.00 0.00 0.00 0.00 0.00 0.00 0.00 0.00 0.00 0.00 0.00 0.00 0.00 0.00 0.00 0.00 0.00 0.00 0.00 0.00 0.01 0.01 0.02 0.03 0.05 0.06 0.08 0.10 0.13 0.14 0.16 0.17 0.13 0.14 0.10 0.03 0.02 0.03 0.04 0.04 0.05 0.06 0.08